• In Belarus
  • List of Countries
  • For 7 days
  • Water Temperature
  • Satellite Maps
  • Weather Map
  • Weather Widgets
  • user-avatar
    Login

    Hourly Weather Kyrdzhali

    Today, 15 July, Sunday

    Time Temperature Precipitation Wind Pressure Humidity
    00:00 +20°C° 0 mm 2 mps 725 mmHg 64%
    01:00 +19°C° 0 mm 2 mps 725 mmHg 65%
    02:00 +19°C° 0 mm 2 mps 725 mmHg 65%
    03:00 +19°C° 0 mm 2 mps 725 mmHg 66%
    04:00 +18°C° 0 mm 2 mps 725 mmHg 68%
    05:00 +18°C° 0 mm 2 mps 725 mmHg 69%
    06:00 +20°C° 0 mm 3 mps 725 mmHg 64%
    07:00 +22°C° 0 mm 3 mps 725 mmHg 58%
    08:00 +26°C° 0 mm 3 mps 725 mmHg 50%
    09:00 +27°C° 0 mm 3 mps 725 mmHg 45%
    10:00 +28°C° 0 mm 3 mps 726 mmHg 41%
    11:00 +29°C° 0 mm 3 mps 726 mmHg 36%
    12:00 +30°C° 0 mm 3 mps 725 mmHg 35%
    13:00 +31°C° 0 mm 3 mps 725 mmHg 33%
    14:00 +30°C° 0 mm 4 mps 725 mmHg 33%
    15:00 +30°C° 0 mm 3 mps 725 mmHg 35%
    16:00 +30°C° 0 mm 3 mps 725 mmHg 36%
    17:00 +30°C° 0 mm 3 mps 725 mmHg 38%
    18:00 +28°C° 0 mm 2 mps 724 mmHg 43%
    19:00 +26°C° 0 mm 2 mps 724 mmHg 49%
    20:00 +24°C° 0 mm 1 mps 724 mmHg 55%
    21:00 +23°C° 0 mm 1 mps 724 mmHg 57%
    22:00 +22°C° 0 mm 1 mps 724 mmHg 58%
    23:00 +22°C° 0 mm 1 mps 724 mmHg 59%

    Tomorrow, 16 July, Monday

    Time Temperature Precipitation Wind Pressure Humidity
    00:00 +21°C° 0 mm 1 mps 724 mmHg 60%
    01:00 +21°C° 0 mm 1 mps 724 mmHg 60%
    02:00 +20°C° 0 mm 2 mps 724 mmHg 61%
    03:00 +19°C° 0 mm 2 mps 724 mmHg 61%
    04:00 +19°C° 0 mm 2 mps 724 mmHg 62%
    05:00 +19°C° 0 mm 2 mps 724 mmHg 62%
    06:00 +21°C° 0 mm 2 mps 724 mmHg 59%
    07:00 +24°C° 0 mm 2 mps 724 mmHg 55%
    08:00 +26°C° 0 mm 2 mps 725 mmHg 51%
    09:00 +27°C° 0 mm 2 mps 725 mmHg 47%
    10:00 +28°C° 0 mm 3 mps 724 mmHg 44%
    11:00 +30°C° 0 mm 3 mps 724 mmHg 40%
    12:00 +30°C° 0.1 mm 3 mps 724 mmHg 39%
    13:00 +30°C° 0.1 mm 3 mps 724 mmHg 38%
    14:00 +31°C° 0.1 mm 3 mps 724 mmHg 38%
    15:00 +31°C° 0.1 mm 2 mps 724 mmHg 38%
    16:00 +31°C° 0.1 mm 2 mps 724 mmHg 38%
    17:00 +31°C° 0.1 mm 2 mps 723 mmHg 38%
    18:00 +29°C° 0.1 mm 2 mps 723 mmHg 44%
    19:00 +27°C° 0.1 mm 2 mps 723 mmHg 49%
    20:00 +25°C° 0.1 mm 1 mps 723 mmHg 55%
    21:00 +24°C° 0 mm 1 mps 723 mmHg 57%
    22:00 +23°C° 0 mm 1 mps 723 mmHg 59%
    23:00 +22°C° 0 mm 1 mps 724 mmHg 61%

    Day after tomorrow, 17 July, Tuesday

    Time Temperature Precipitation Wind Pressure Humidity
    00:00 +22°C° 0 mm 1 mps 723 mmHg 62%
    01:00 +22°C° 0 mm 1 mps 723 mmHg 62%
    02:00 +21°C° 0 mm 1 mps 723 mmHg 63%
    03:00 +21°C° 0 mm 1 mps 723 mmHg 63%
    04:00 +21°C° 0 mm 1 mps 722 mmHg 63%
    05:00 +21°C° 0 mm 1 mps 722 mmHg 63%
    06:00 +23°C° 0.1 mm 1 mps 722 mmHg 60%
    07:00 +25°C° 0.1 mm 1 mps 722 mmHg 57%
    08:00 +26°C° 0.1 mm 1 mps 722 mmHg 53%
    09:00 +28°C° 0.1 mm 1 mps 722 mmHg 50%
    10:00 +29°C° 0.1 mm 1 mps 722 mmHg 47%
    11:00 +31°C° 0.1 mm 1 mps 722 mmHg 44%
    12:00 +31°C° 0.2 mm 2 mps 722 mmHg 43%
    13:00 +31°C° 0.2 mm 2 mps 721 mmHg 42%
    14:00 +32°C° 0.2 mm 2 mps 721 mmHg 41%
    15:00 +31°C° 0.3 mm 2 mps 721 mmHg 43%
    16:00 +31°C° 0.3 mm 2 mps 720 mmHg 46%
    17:00 +30°C° 0.3 mm 2 mps 720 mmHg 48%
    18:00 +29°C° 0.2 mm 2 mps 720 mmHg 52%
    19:00 +27°C° 0.2 mm 1 mps 720 mmHg 57%
    20:00 +26°C° 0.2 mm 1 mps 720 mmHg 61%
    21:00 +25°C° 0.1 mm 1 mps 720 mmHg 62%
    22:00 +24°C° 0.1 mm 1 mps 720 mmHg 64%
    23:00 +24°C° 0.1 mm 1 mps 720 mmHg 65%

    18 July, Wednesday

    Time Temperature Precipitation Wind Pressure Humidity
    00:00 +23°C° 0.2 mm 2 mps 720 mmHg 66%
    01:00 +23°C° 0.2 mm 2 mps 720 mmHg 68%
    02:00 +21°C° 0.2 mm 2 mps 720 mmHg 69%
    03:00 +21°C° 0.4 mm 2 mps 720 mmHg 72%
    04:00 +21°C° 0.4 mm 2 mps 720 mmHg 74%
    05:00 +20°C° 0.4 mm 2 mps 720 mmHg 76%
    06:00 +23°C° 0.3 mm 2 mps 720 mmHg 72%
    07:00 +24°C° 0.3 mm 3 mps 721 mmHg 68%
    08:00 +25°C° 0.3 mm 3 mps 721 mmHg 64%
    09:00 +26°C° 0.4 mm 3 mps 721 mmHg 60%
    10:00 +27°C° 0.4 mm 4 mps 721 mmHg 56%
    11:00 +28°C° 0.4 mm 4 mps 722 mmHg 52%
    12:00 +28°C° 0.4 mm 4 mps 721 mmHg 53%
    13:00 +27°C° 0.4 mm 3 mps 721 mmHg 53%
    14:00 +27°C° 0.4 mm 2 mps 721 mmHg 54%
    15:00 +28°C° 0.3 mm 2 mps 721 mmHg 51%
    16:00 +28°C° 0.3 mm 2 mps 721 mmHg 47%
    17:00 +29°C° 0.3 mm 2 mps 721 mmHg 44%
    18:00 +27°C° 0 mm 2 mps 721 mmHg 48%
    19:00 +26°C° 0 mm 2 mps 721 mmHg 52%
    20:00 +24°C° 0 mm 2 mps 721 mmHg 56%
    21:00 +23°C° 0 mm 2 mps 721 mmHg 58%
    22:00 +21°C° 0 mm 3 mps 721 mmHg 59%
    23:00 +20°C° 0 mm 3 mps 722 mmHg 60%

    19 July, Thursday

    Time Temperature Precipitation Wind Pressure Humidity
    00:00 +20°C° 0 mm 3 mps 721 mmHg 60%
    01:00 +19°C° 0 mm 3 mps 721 mmHg 60%
    02:00 +19°C° 0 mm 3 mps 721 mmHg 60%
    03:00 +19°C° 0 mm 3 mps 721 mmHg 60%
    04:00 +19°C° 0 mm 3 mps 721 mmHg 60%
    05:00 +19°C° 0 mm 3 mps 721 mmHg 61%
    06:00 +20°C° 0.1 mm 3 mps 721 mmHg 60%
    07:00 +21°C° 0.1 mm 3 mps 721 mmHg 58%
    08:00 +22°C° 0.1 mm 3 mps 721 mmHg 57%
    09:00 +24°C° 0 mm 3 mps 722 mmHg 55%
    10:00 +26°C° 0 mm 2 mps 722 mmHg 52%
    11:00 +27°C° 0 mm 2 mps 722 mmHg 50%
    12:00 +27°C° 0.1 mm 2 mps 722 mmHg 49%
    13:00 +28°C° 0.1 mm 2 mps 722 mmHg 48%
    14:00 +28°C° 0.1 mm 2 mps 722 mmHg 47%
    15:00 +28°C° 0.1 mm 2 mps 722 mmHg 46%
    16:00 +29°C° 0.1 mm 2 mps 722 mmHg 46%
    17:00 +29°C° 0.1 mm 2 mps 722 mmHg 46%
    18:00 +27°C° 0.1 mm 2 mps 722 mmHg 51%
    19:00 +26°C° 0.1 mm 1 mps 722 mmHg 56%
    20:00 +24°C° 0.1 mm 1 mps 722 mmHg 61%
    21:00 +23°C° 0 mm 1 mps 722 mmHg 65%
    22:00 +21°C° 0 mm 2 mps 722 mmHg 69%
    23:00 +20°C° 0 mm 2 mps 723 mmHg 73%

    20 July, Friday

    Time Temperature Precipitation Wind Pressure Humidity
    00:00 +20°C° 0 mm 2 mps 723 mmHg 74%
    01:00 +20°C° 0 mm 2 mps 723 mmHg 75%
    02:00 +19°C° 0 mm 2 mps 723 mmHg 77%
    03:00 +19°C° 0 mm 2 mps 723 mmHg 77%
    04:00 +19°C° 0 mm 2 mps 723 mmHg 77%
    05:00 +19°C° 0 mm 2 mps 723 mmHg 78%
    06:00 +20°C° 0 mm 2 mps 723 mmHg 72%
    07:00 +23°C° 0 mm 2 mps 724 mmHg 67%
    08:00 +25°C° 0 mm 2 mps 724 mmHg 62%
    09:00 +26°C° 0 mm 2 mps 724 mmHg 58%
    10:00 +28°C° 0 mm 2 mps 724 mmHg 54%
    11:00 +29°C° 0 mm 2 mps 724 mmHg 50%
    12:00 +30°C° 0.1 mm 2 mps 724 mmHg 49%
    13:00 +30°C° 0.1 mm 2 mps 724 mmHg 48%
    14:00 +31°C° 0.1 mm 2 mps 724 mmHg 47%
    15:00 +31°C° 0.2 mm 2 mps 724 mmHg 48%
    16:00 +31°C° 0.2 mm 2 mps 724 mmHg 49%
    17:00 +30°C° 0.2 mm 2 mps 724 mmHg 49%
    18:00 +29°C° 0.1 mm 1 mps 724 mmHg 54%
    19:00 +27°C° 0.1 mm 1 mps 724 mmHg 58%
    20:00 +26°C° 0.1 mm 1 mps 724 mmHg 62%
    21:00 +25°C° 0 mm 1 mps 724 mmHg 64%
    22:00 +25°C° 0 mm 1 mps 724 mmHg 66%
    23:00 +24°C° 0 mm 1 mps 725 mmHg 68%
    Show more